Regional Weather Roundup
Issued by NWS Wilmington, NC

Home | Current Version | Previous Version | Text Only | Print | Product List | Glossary On
Versions: 1 2 3 4 5 6 7 8 9 10 11 12 13 14 15 16 17 18 19 20 21 22 23 24 25 26 27 28 29 30 31 32 33 34 35 36 37 38 39 40 41 42 43 44 45 46 47 48 49 50
000
ASUS42 KILM 171813
RWRILM
RWRILM
REGIONAL HOURLY WEATHER ROUNDUP
NATIONAL WEATHER SERVICE WILMINGTON NC
100 PM EST WED JAN 17 2018

NOTE: "FAIR" INDICATES FEW OR NO CLOUDS BELOW 12,000 FEET WITH NO
SIGNIFICANT WEATHER AND/OR OBSTRUCTIONS TO VISIBILITY.

...............WFO WILMINGTON COUNTY WARNING AREA...............

......COASTAL NC AND SC COUNTIES......

CITY           SKY/WX    TMP DP  RH WIND       PRES   REMARKS
WILMINGTON     FAIR      53  29  39 E9        30.15F
N MYRTLE BEACH PTSUNNY   54  37  52 E7        30.14F
MYRTLE BEACH   CLOUDY    55  35  47 CALM      30.16F

......INLAND NC AND SC COUNTIES.......

CITY           SKY/WX    TMP DP  RH WIND       PRES   REMARKS
LUMBERTON      LGT RAIN  39  33  79 N13       30.19F WCI  31
ELIZABETHTOWN  NOT AVBL
WHITEVILLE     CLOUDY    45  32  59 CALM      30.17F
FLORENCE       CLOUDY    41  34  76 N7        30.18F
DARLINGTON     LGT RAIN  39  37  92 N5        30.19F FOG
KINGSTREE      CLOUDY    45  32  61 CALM      30.18F
HARTSVILLE     LGT RAIN  36  36 100 NE3       30.17F
BENNETTSVILLE  DRIZZLE   41  37  87 NE8       30.19F
CONWAY         CLOUDY    48  34  57 N3        30.16F
GEORGETOWN     CLOUDY    52  34  50 W7        30.16F
MARION         DRIZZLE   41  34  75 NE8       30.16F

....................REST OF NORTH CAROLINA......................

.........EASTERN NC.........

CITY           SKY/WX    TMP DP  RH WIND       PRES   REMARKS
CAPE HATTERAS  CLOUDY    42  38  85 N8        30.19F
JACKSONVILLE   FAIR      52  31  44 N7        30.16F
MOREHEAD CITY  CLOUDY    49  32  52 NE13      30.16F
KENANSVILLE    PTSUNNY   46  30  53 N9        30.18F
NEW BERN       FAIR      48  32  53 NE12      30.18F
ELIZABETH CITY FAIR      40  36  86 N17       30.25F WCI  31

.........CENTRAL NC.........

CITY           SKY/WX    TMP DP  RH WIND       PRES   REMARKS
RALEIGH DURHAM HVY SNOW  32  31  96 NE9       30.22F VSB 1/4 WCI  24
ROCKY MOUNT    CLOUDY    37  31  78 N10       30.24F WCI  30
ROANOKE RAPIDS NOT AVBL
FAYETTEVILLE   LGT RAIN  39  36  89 NE10      30.20F FOG     WCI  32
HOFFMAN        LGT SNOW  33  32  97 NE3       30.21F FOG

.........WESTERN NC.........

CITY           SKY/WX    TMP DP  RH WIND       PRES   REMARKS
CHARLOTTE      SNOW      30  28  92 N9        30.22F VSB 1/2 WCI  22
GREENSBORO     SNOW      26  25  96 N9        30.21F VSB 1/2 WCI  17
HICKORY        NOT AVBL
BOONE          NOT AVBL
ASHEVILLE      NOT AVBL

.....................REST OF SOUTH CAROLINA.....................

.........EASTERN SC.........

CITY           SKY/WX    TMP DP  RH WIND       PRES   REMARKS
CHARLESTON     CLOUDY    49  36  61 NW12      30.18F
BEAUFORT MCAS  CLOUDY    45  35  68 NW8       30.21F
HILTON HEAD    CLOUDY    45  34  65 NW9       30.21F

.........CENTRAL SC.........

CITY           SKY/WX    TMP DP  RH WIND       PRES   REMARKS
COLUMBIA       FLURRIES  36  36 100 W8        30.22F WCI  30
ORANGEBURG     LGT RAIN  39  37  92 W9        30.22F FOG     WCI  33
SUMTER SHAW    LGT RAIN  41  38  90 SW3       30.17F FOG

.........WESTERN SC.........

CITY           SKY/WX    TMP DP  RH WIND       PRES   REMARKS
GREENVILLE     NOT AVBL
ROCK HILL      LGT SNOW  31  29  92 N8        30.20F VSB 1   WCI  23
ANDERSON       MIX PCPN  30  25  81 W7        30.25F WCI  23
CLEMSON        NOT AVBL
GREENWOOD      CLOUDY    31  30  96 W9        30.25F FOG     WCI  23


...................COASTAL AND OFFSHORE REPORTS..................

................LOCAL PIERS AND NC RESERVE................


STATION/POSITION TIME  SKY/WX   TEMP    WIND        PRES    VSBY
                                AIR SEA DIR/SP/G
                 (UTC)          (F)     (DEG/KT/KT) (MB)    (MI)
JOHNY MRCER PIER 1742            46 47   30/ 12/ 13 1021.2F
NC RESRV MASNBRO 1645                    70/  5     1022.0
OCEAN CREST PIER NOT AVBL
SPRINGMAID  PIER 1742                               1024.1F


................COASTAL AND OFFSHORE BUOYS................


STATION/POSITION TIME  SKY/WX   TEMP    WIND        PRES    VSBY
                                AIR SEA DIR/SP/G
                 (UTC)          (F)     (DEG/KT/KT) (MB)    (MI)
DIMNDSHOAL 41025 1800            49     360/ 19/ 25 1021.4
CAPE LOOKOUT     1800                    40/ 19/ 20 1021.1F
ONSLOW BAY 41036 NOT AVBL
ONSLOW BAY 41064 1708            53 58   50/ 10/ 14 1022.3F
ONSLOW BAY 41159 1730               58                N/A
WVE H/P(F/S)=  5/11 SWL H/P/D(F/S/D)=  3/110/11

MASNBO INL 41110 1759               47                N/A
WVE H/P(F/S)=  3/11 SWL H/P/D(F/S/D)=  2/130/11

WILM HARBR 41108 1730               47                N/A
WVE H/P(F/S)=  2/11 SWL H/P/D(F/S/D)=  2/150/11

27SE WRITB 41037 1708            54 58   70/ 10/ 17 1021.7F
FRYING PAN 41013 1800            59      80/  6/ 10 1019.8
SUNST NRSH 41024 1708            47      20/  2/  2 1021.8F
CAPRS NRSH 41029 1708            48 48  310/ 10/ 14 1021.8F
EDISTO     41004 1800            62     230/ 14/ 19 1020.1


..........OFFSHORE BUOYS BEYOND 100 NM OFFSHORE...........
.....IN A TRIANGLE---HAT TO BERMUDA TO BAHAMAS TO HAT.....


STATION/POSITION TIME  SKY/WX   TEMP    WIND        PRES    VSBY
                                AIR SEA DIR/SP/G
                 (UTC)          (F)     (DEG/KT/KT) (MB)    (MI)
150E HAT   41001 NOT AVBL
W BERMUDA  41048 1800            69     100/  4/  8 1020.0
ATLANTIC S 41049 1750            73 76  150/ 17/ 21 1018.9F
WVE H/P(F/S)=  8/ 9 SWL H/P/D(F/S/D)=  7/ 80/ 9

E BAHAMAS  41046 1800                    50/  4/  6 1018.7
NE BAHAMAS 41047 1750            64     120/ 12/ 16 1020.0F
WVE H/P(F/S)=  9/10 SWL H/P/D(F/S/D)=  8/ 40/10

120E CANVRL41010 NOT AVBL

END



USA.gov is the U.S. government's official web portal to all federal, state and local government web resources and services.